KC8UZG Weather Reports


Display with metric or nautical units.
time (UTC)temp
F
wind
direction
speed
MPH
gust
MPH
rain 1hr
in
rain 24hr
in
rain mn
in
humidity
%
barometer
mb
20260504201526 70 243 4.0 13.0 0.00 0.00 0.00 64
20260504200532 70 240 8.0 15.0 0.00 0.00 0.00 64
20260504195539 71 247 2.0 13.0 0.00 0.00 0.00 65
20260504194517 70 219 1.0 5.0 0.00 0.00 0.00 67
20260504193525 69 244 1.0 5.0 0.00 0.00 0.00 68
20260504192530 68 234 1.0 5.0 0.00 0.00 0.00 70
20260504191536 69 251 0.0 13.0 0.00 0.00 0.00 69
20260504190542 70 251 2.0 10.0 0.00 0.00 0.00 67
20260504185521 71 246 4.0 17.0 0.00 0.00 0.00 65
20260504184525 71 239 4.0 13.0 0.00 0.00 0.00 64 1007.3
20260504183533 71 232 2.0 8.0 0.00 0.00 0.00 64 1007.3
20260504182539 71 249 3.0 17.0 0.00 0.00 0.00 64 1007.0
20260504181517 71 245 3.0 8.0 0.00 0.00 0.00 64
20260504180524 72 254 2.0 10.0 0.00 0.00 0.00 63
20260504175530 71 252 5.0 15.0 0.00 0.00 0.00 63
20260504174536 71 226 3.0 15.0 0.00 0.00 0.00 62
20260504173542 73 242 1.0 8.0 0.00 0.00 0.00 61 1006.6
20260504172520 72 231 4.0 13.0 0.00 0.00 0.00 61 1006.6
20260504171527 71 254 3.0 15.0 0.00 0.00 0.00 62 1006.6
20260504170533 71 252 3.0 10.0 0.00 0.00 0.00 62 1006.6
20260504150524 66 214 1.0 8.0 0.00 0.00 0.00 68 1007.3
20260504140533 60 250 1.0 5.0 0.00 0.00 0.00 74 1008.0
20260504130542 55 264 0.0 2.0 0.00 0.00 0.00 78
20260504110532 48 251 0.0 0.0 0.00 0.00 0.00 83
20260504100541 46 232 0.0 0.0 0.00 0.00 0.00 87 1008.1
20260504081525 47 224 0.0 0.0 0.00 0.00 0.00 84 1009.0
20260504080531 47 243 0.0 0.0 0.00 0.00 0.00 84 1009.0
20260504050532 51 231 0.0 0.0 0.00 0.00 0.00 76 1010.7
20260504045537 51 214 0.0 0.0 0.00 0.00 0.00 76 1010.8
20260504044516 51 209 0.0 0.0 0.00 0.00 0.00 76 1010.8
20260504043522 51 232 0.0 0.0 0.00 0.00 0.00 77 1010.8
20260504042528 50 233 0.0 0.0 0.00 0.00 0.00 78 1010.8
20260504041534 50 233 0.0 0.0 0.00 0.00 0.00 80 1010.9
20260504040541 50 212 0.0 0.0 0.00 0.00 0.00 82 1011.1
20260504035519 50 231 0.0 0.0 0.00 0.00 0.00 84 1011.1
20260504034524 50 222 0.0 0.0 0.00 0.00 0.00 84 1011.1
20260504033531 50 209 0.0 0.0 0.00 0.00 0.00 84 1011.2
20260504032537 50 226 0.0 0.0 0.00 0.00 0.00 83 1011.4
20260504031515 50 230 0.0 0.0 0.00 0.00 0.00 83 1011.5
20260504030523 50 220 0.0 0.0 0.00 0.00 0.00 83 1011.6
20260504025528 50 229 0.0 0.0 0.00 0.00 0.00 83 1011.8
20260504024533 50 248 0.0 0.0 0.00 0.00 0.00 83 1011.8
20260504023540 50 251 0.0 0.0 0.00 0.00 0.00 82 1011.8
20260504022520 50 255 0.0 0.0 0.00 0.00 0.00 83
20260504021526 50 257 0.0 0.0 0.00 0.00 0.00 83 1011.8
20260504020530 51 244 0.0 0.0 0.00 0.00 0.00 81 1011.8
20260504015537 51 126 0.0 2.0 0.00 0.00 0.00 80 1011.8
20260504014516 51 256 0.0 0.0 0.00 0.00 0.00 80 1011.8
20260504013522 51 102 0.0 8.0 0.00 0.00 0.00 79 1011.8
20260504012528 51 114 0.0 0.0 0.00 0.00 0.00 79 1011.8
20260504011534 51 269 0.0 0.0 0.00 0.00 0.00 79 1011.8
20260504010539 51 135 0.0 0.0 0.00 0.00 0.00 79 1011.8
20260504005518 50 129 0.0 0.0 0.00 0.00 0.00 80
20260504004524 50 216 0.0 0.0 0.00 0.00 0.00 80 1011.8
20260504003531 50 247 0.0 0.0 0.00 0.00 0.00 79 1011.8
20260504002537 51 25 0.0 5.0 0.00 0.00 0.00 79 1011.8
20260504001515 51 39 0.0 0.0 0.00 0.00 0.00 81 1011.8
20260504000522 51 102 0.0 2.0 0.00 0.00 0.00 81 1011.8
20260503235527 51 61 0.0 8.0 0.00 0.00 0.00 82 1011.8
20260503234533 51 110 2.0 8.0 0.00 0.00 0.00 81 1011.8
20260503233540 51 96 0.0 5.0 0.00 0.00 0.00 81 1011.8
20260503232519 50 89 0.0 5.0 0.00 0.00 0.00 82 1011.8
20260503231524 50 269 0.0 2.0 0.00 0.00 0.00 83 1011.8
20260503230530 50 118 0.0 5.0 0.00 0.00 0.00 84 1012.2
20260503225537 50 107 1.0 8.0 0.00 0.00 0.00 84 1012.5
20260503224542 50 86 0.0 5.0 0.00 0.00 0.00 84 1012.9
20260503223522 50 112 0.0 5.0 0.00 0.00 0.00 84 1012.9
20260503222527 50 44 0.0 0.0 0.00 0.00 0.00 84 1013.2
20260503221533 50 247 0.0 0.0 0.00 0.00 0.00 87 1013.6
20260503220539 50 177 0.0 0.0 0.00 0.00 0.00 87 1013.6
20260503215518 49 296 0.0 0.0 0.00 0.00 0.00 87 1013.9
20260503214525 49 278 0.0 0.0 0.00 0.00 0.00 88 1013.9
20260503213530 49 227 0.0 0.0 0.00 0.00 0.00 87
20260503212536 48 259 0.0 0.0 0.00 0.00 0.00 85
20260503211515 49 301 0.0 0.0 0.00 0.00 0.00 83 1015.3
20260503210522 50 253 5.0 15.0 0.00 0.00 0.00 80 1015.3
20260503205527 53 250 5.0 15.0 0.00 0.00 0.00 68 1014.8
20260503204533 55 246 8.0 15.0 0.00 0.00 0.00 57 1014.6
20260503203539 56 251 4.0 15.0 0.00 0.00 0.00 51
20260503202518 58 251 7.0 17.0 0.00 0.00 0.00 46 1014.3